PTD-4 (LISA-T) (60565 NORAD) Tracking and Keplerian Element Data

This shows tracking and keplerian element data for the satellite.

Feedback or suggestion? Click here.




ElementValue
Catalog60565
NamePTD-4 (LISA-T)
Epoch Orbit849
Epoch Day286.79789693
Epoch Year2024
RAAN1.4317
Inclination97.747
Eccentricity0.0001101
Argument of Perigee319.3631
Mean Anonmoly40.7507
Mean Motion14.94594004
Decay Rate0.00023089
L11 60565U 24149DB 24286.79789693 .00023089 00000+0 21329-2 0 9992
L22 60565 97.7470 1.4317 0001101 319.3631 40.7507 14.94594004 8497



Live tracking and technical data element details for PTD-4 (LISA-T) (NORAD 60565). PTD-4 (LISA-T) can be tracked NOW for your location showing map with azimuth and elevation plus other details from your city location.







IsCatalogInMostPopularTable: catalog: 60565, numindb: 5
Update: records affected: 1



GetName: 60565 PTD-4 (LISA-T)

Hit Count: updated at: Tue, 03 Dec 2024 02:43:47 GMT